Home > Weather > Westerstede > Past weeks

Flag for Germany Past Weather in Westerstede, Lower Saxony, Germany — Yesterday and Last 2 Weeks

Now
64 °F

Mild.


Feels Like: 64 °F
Forecast: 59 / 70 °F
Wind: 3 mph from North

Location: Wittmundhaven

Current Time: Jul 27, 2016 at 7:25:24 PM

Latest Report: Jul 27, 2016 at 6:20 PM


Visibility: 2 mi

Pressure: 29.95 "Hg

Humidity: 88%

Dew Point: 61 °F

Location of WesterstedeLocation

Past Weather in Westerstede — Graph

°F

Westerstede Temperature Yesterday

Maximum temperature yesterday: 70 °F (at 1:20 PM)
Minimum temperature yesterday: 54 °F (at 5:20 AM)
Average temperature yesterday: 63 °F

High & Low Weather Summary for the Past Weeks

 TemperatureHumidityPressure
High88 °F (Jul 20, 4:20 PM)100% (Jul 13, 12:20 AM)30.24 "Hg (Jul 13, 12:20 AM)
Low50 °F (Jul 14, 3:20 AM)40% (Jul 20, 6:20 PM)29.86 "Hg (Jul 12, 5:20 PM)
Average65 °F83%30.06 "Hg
* Reported Jul 12 5:20 PM — Jul 27 5:20 PM, Westerstede, Weather by CustomWeather, © 2016

Note: Actual official high and low records may vary slightly from our data, if they occured in-between our weather recording intervals... More about our weather records

Advertising

Westerstede Weather History for the Previous 24 Hours

Scroll right to see more
 ConditionsComfort  
Time TempWeatherWind HumidityBarometerVisibility
5:20 PM
Wed, Jul 27
66 °FMild.15 mph78%29.95 "Hg3 mi
4:20 PM73 °FMild.15 mph53%29.92 "Hg3 mi
3:20 PM73 °FBroken clouds.9 mph61%29.95 "HgN/A
2:20 PM72 °FBroken clouds.12 mph65%29.95 "HgN/A
1:20 PM68 °FSprinkles. Broken clouds.8 mph78%29.95 "HgN/A
12:20 PM72 °FPartly sunny.8 mph61%29.95 "HgN/A
11:20 AM70 °FPartly sunny.7 mph73%29.98 "HgN/A
10:20 AM68 °FBroken clouds.7 mph78%29.98 "HgN/A
9:20 AM66 °FPartly sunny.6 mph83%30.01 "HgN/A
8:20 AM64 °FPartly sunny.3 mph88%30.01 "Hg6 mi
7:20 AM63 °FPartly sunny.1 mph94%30.01 "Hg5 mi
7:00 AM63 °FPartly sunny.1 mph94%30.01 "Hg5 mi
6:20 AM61 °FCool.1 mph94%30.01 "Hg2 mi
5:20 AM61 °FCool.2 mph94%30.04 "Hg2 mi
4:20 AM61 °FCool.2 mph94%30.07 "Hg2 mi
3:20 AM61 °FCool.2 mph94%30.07 "Hg2 mi
2:20 AM59 °FCool.1 mph100%30.07 "Hg2 mi
1:20 AM59 °FCool.2 mph94%30.09 "Hg2 mi
12:20 AM59 °FCool.1 mph100%30.09 "Hg0 mi
11:20 PM
Tue, Jul 26
61 °FCool.1 mph94%30.12 "Hg0 mi
10:20 PM63 °FMild.2 mph88%30.12 "Hg2 mi
9:20 PM64 °FMild.3 mph88%30.12 "Hg3 mi
8:20 PM66 °FMild.6 mph83%30.09 "Hg4 mi
7:20 PM68 °FMild.7 mph78%30.12 "Hg4 mi
Weather by CustomWeather, © 2016

See weather overviewHow to use our weather pages